[[{"header":{"parameterUnit":"m.s-1","parameterCategory":2,"la1":30.2991,"la2":30.254,"lo1":-89.0895,"lo2":-89.0444,"dy":0.0017,"dx":0.0017,"nx":28,"ny":28,"refTime":"2025-08-09T03:00:00:Z","depth":"0","parameterNumber":2,"parameterNumberName":"U-component_of_CURRENTS"},"data":[0,0,0,0,0,0,0,0,0,0,0,0,0,0,0,0,0,0,0,0,0,0,0,0,0,0,0,0,0,0,0,0,0,0,0,0,0,0,0,0,0,0,0,0,0,0,0,0,0,0,0,0,0,0,0,0,0,0,-0.2602,-0.2603,0,-0.2622,-0.2622,-0.2622,-0.2594,-0.2594,-0.2593,-0.2592,-0.2546,-0.2545,-0.2545,0,0,0,0,0,0,0,0,0,0,0,0,0,-0.253,-0.2531,-0.2602,-0.2603,-0.2603,-0.2622,-0.2622,-0.2622,-0.2595,-0.2594,-0.2593,-0.2592,-0.2546,-0.2545,-0.2545,0,0,0,0,0,0,0,0,0,0,0,0,0,-0.2554,-0.2532,-0.2602,-0.2594,-0.2593,-0.2622,-0.2622,-0.2622,-0.2595,-0.2594,-0.2593,-0.2592,-0.2546,-0.2545,-0.2545,-0.2562,0,0,-0.2542,-0.2542,0,0,0,0,0,0,0,0,-0.2553,-0.2557,-0.2595,-0.2594,-0.2594,-0.2607,-0.258,-0.2599,-0.2595,-0.2591,-0.2592,-0.2591,-0.2563,-0.2561,-0.2564,-0.2559,-0.2557,-0.2542,-0.2542,-0.2541,-0.2541,0,0,0,0,0,0,0,-0.2551,-0.2556,-0.2607,-0.2595,-0.2595,-0.2586,-0.2587,-0.2583,-0.258,-0.2592,-0.259,-0.2597,-0.2562,-0.2565,-0.2562,-0.2557,-0.2542,-0.2541,-0.2541,-0.2541,-0.2568,-0.2569,0,0,0,0,0,0,-0.2557,-0.2554,-0.2607,-0.2608,-0.2573,-0.2588,-0.259,-0.2602,-0.2581,-0.2578,-0.2598,-0.2596,-0.2567,-0.2563,-0.2561,-0.259,-0.2541,-0.254,-0.254,-0.2567,-0.2568,-0.2569,0,0,0,0,0,0,-0.2555,-0.2561,-0.2606,-0.2583,-0.2589,-0.2591,-0.2604,-0.2603,-0.2602,-0.2587,-0.2582,-0.2598,-0.2566,-0.2562,-0.2563,-0.2588,-0.254,-0.2539,-0.2565,-0.2567,-0.2569,-0.2643,0,0,0,0,0,0,-0.2553,-0.2561,-0.2565,-0.2584,-0.259,-0.2632,-0.2605,-0.2604,-0.2609,-0.2606,-0.2586,-0.2581,-0.2564,-0.2565,-0.2562,-0.2586,-0.2539,-0.2564,-0.2566,-0.2568,-0.2639,-0.2647,-0.2654,0,0,0,0,0,-0.255,-0.2567,-0.2566,-0.2572,-0.2599,-0.2634,-0.2636,-0.2631,-0.2611,-0.2623,-0.2606,-0.2581,-0.2577,-0.2565,-0.2562,-0.2586,-0.2563,-0.2565,-0.2568,-0.2635,-0.2645,-0.2653,0,0,0,0,0,0,-0.2534,-0.2566,-0.2565,-0.2589,-0.2613,-0.263,-0.2637,-0.2635,-0.2632,-0.262,-0.2596,-0.2592,-0.2604,-0.2585,-0.2572,-0.2601,-0.2566,-0.2569,-0.2618,-0.2628,-0.2635,-0.2641,-0.2538,0,0,0,0,0,-0.2536,-0.2553,-0.2586,-0.2601,-0.2616,-0.2625,-0.2634,-0.2638,-0.2641,-0.2638,-0.2627,-0.2613,-0.2615,-0.2612,-0.2609,-0.2623,-0.2607,-0.2637,-0.2644,-0.2651,-0.2655,-0.2659,-0.2667,-0.2579,-0.2578,-0.2578,0,0,-0.253,-0.2551,-0.2559,-0.2599,-0.261,-0.2646,-0.2627,-0.265,-0.2675,-0.2634,-0.2651,-0.2639,-0.2625,-0.2645,-0.2649,-0.263,-0.2668,-0.2654,-0.266,-0.266,-0.2663,-0.2671,-0.2679,-0.258,-0.258,-0.258,0,0,-0.2539,-0.2552,-0.2574,-0.2604,-0.2637,-0.2654,-0.2663,-0.2688,-0.2694,-0.2716,-0.2694,-0.27,-0.2695,-0.27,-0.2699,-0.2746,-0.2709,-0.274,-0.2783,-0.2788,-0.2795,-0.2801,-0.2793,-0.2798,-0.2743,-0.2743,-0.2743,0,-0.253,-0.2567,-0.2585,-0.2624,-0.2649,-0.2661,-0.2698,-0.2718,-0.2738,-0.275,-0.2729,-0.2741,-0.2727,-0.276,-0.2774,-0.2765,-0.2751,-0.275,-0.2798,-0.2803,-0.2808,-0.2799,-0.2803,-0.2747,-0.2746,-0.2746,-0.2746,0,-0.2562,-0.2595,-0.2613,-0.2665,-0.2698,-0.2731,-0.2772,-0.2796,-0.2798,-0.2813,-0.284,-0.2829,-0.2832,-0.2837,-0.2817,-0.2853,-0.2826,-0.2808,-0.2775,-0.2822,-0.2809,-0.2812,-0.2752,-0.2751,-0.275,-0.2749,0,0,-0.2525,-0.2618,-0.2622,-0.2656,-0.2724,-0.2751,-0.2808,-0.286,-0.2886,-0.2904,-0.2934,-0.2947,-0.293,-0.2928,-0.2911,-0.2917,-0.2941,-0.2877,-0.2875,-0.287,-0.294,-0.2868,-0.2864,-0.2926,-0.2927,-0.2928,-0.2917,0,-0.2539,-0.2614,-0.2661,-0.2727,-0.2768,-0.2815,-0.2868,-0.2915,-0.2939,-0.2972,-0.2978,-0.2993,-0.2969,-0.2963,-0.2973,-0.2945,-0.2952,-0.2945,-0.2895,-0.2893,-0.2824,-0.2867,-0.2755,-0.2731,-0.292,-0.292,-0.2921,0,-0.2546,-0.26,-0.2669,-0.2763,-0.2785,-0.2826,-0.29,-0.2948,-0.3008,-0.3028,-0.3052,-0.3048,-0.3068,-0.3031,-0.3027,-0.3019,-0.2987,-0.2967,-0.2965,-0.2874,-0.2828,-0.2714,-0.2729,-0.271,-0.2925,-0.2925,-0.2925,0,-0.2495,-0.2599,-0.265,-0.2683,-0.2794,-0.2828,-0.2877,-0.2951,-0.2989,-0.3047,-0.3069,-0.3099,-0.3094,-0.3081,-0.3038,-0.3029,-0.3021,-0.3001,-0.2915,-0.2909,-0.2791,-0.2772,-0.278,-0.3003,-0.3003,-0.3003,-0.3003,0,-0.2486,-0.2525,-0.2627,-0.2656,-0.271,-0.2796,-0.285,-0.2906,-0.2985,-0.3018,-0.3074,-0.3094,-0.3103,-0.3097,-0.306,-0.2994,-0.3037,-0.2929,-0.2906,-0.2812,-0.2797,-0.2755,-0.2766,-0.3002,-0.3002,-0.3002,-0.3002,0,-0.2414,-0.2491,-0.2546,-0.2655,-0.2684,-0.271,-0.2816,-0.2852,-0.2944,-0.2986,-0.3003,-0.3084,-0.3075,-0.3078,-0.3051,-0.3004,-0.2903,-0.2925,-0.281,-0.2773,-0.2659,-0.2677,-0.2628,-0.2555,-0.2826,-0.2824,-0.2823,0,-0.2383,-0.2405,-0.2504,-0.2524,-0.2567,-0.263,-0.267,-0.2795,-0.2835,-0.2962,-0.2966,-0.3012,-0.3005,-0.2968,-0.2914,-0.2853,-0.283,-0.2707,-0.2672,-0.2644,-0.2649,-0.2647,-0.2588,-0.2548,-0.2544,-0.2541,-0.2539,0,-0.2303,-0.2333,-0.2373,-0.2415,-0.2455,-0.2511,-0.2578,-0.2617,-0.2753,-0.2804,-0.2856,-0.2872,-0.2875,-0.2781,-0.273,-0.2669,-0.2631,-0.2642,-0.2646,-0.2461,-0.2427,-0.2346,-0.2567,-0.2512,-0.2515,-0.2517,-0.2518,-0.2519,-0.2212,-0.221,-0.2253,-0.2278,-0.2323,-0.2357,-0.2357,-0.2449,-0.2497,-0.255,-0.2663,-0.2661,-0.265,-0.2566,-0.2518,-0.2403,-0.2444,-0.232,-0.2354,-0.2362,-0.2264,-0.2423,-0.2322,-0.2324,-0.2325,-0.2326,-0.2327,0,-0.2085,-0.2096,-0.2113,-0.2139,-0.2125,-0.2203,-0.2259,-0.2234,-0.2232,-0.2338,-0.2362,-0.2401,-0.2313,-0.2322,-0.2243,-0.215,-0.2093,-0.2096,-0.2079,-0.2038,-0.2198,-0.2157,-0.1976,-0.1976,-0.1976,-0.1976,-0.1976,-0.1976,-0.202,-0.1983,-0.1993,-0.1923,-0.1936,-0.1875,-0.1874,-0.1862,-0.1904,-0.1926,-0.2003,-0.2119,-0.2143,-0.2252,-0.2135,-0.2033,-0.1977,-0.1909,-0.194,-0.2079,-0.2104,-0.2127,-0.2092,-0.19,-0.19,-0.1696,-0.1695,-0.1694]},{"header":{"parameterUnit":"m.s-1","parameterCategory":2,"la1":30.2991,"la2":30.254,"lo1":-89.0895,"lo2":-89.0444,"dy":0.0017,"dx":0.0017,"nx":28,"ny":28,"refTime":"2025-08-09T03:00:00:Z","depth":"0","parameterNumber":3,"parameterNumberName":"V-component_of_CURRENTS"},"data":[0,0,0,0,0,0,0,0,0,0,0,0,0,0,0,0,0,0,0,0,0,0,0,0,0,0,0,0,0,0,0,0,0,0,0,0,0,0,0,0,0,0,0,0,0,0,0,0,0,0,0,0,0,0,0,0,0,0,-0.0252,-0.0251,0,-0.0161,-0.016,-0.0159,-0.0097,-0.0097,-0.0097,-0.0096,0.0015,0.0018,0.0021,0,0,0,0,0,0,0,0,0,0,0,0,0,-0.032,-0.032,-0.0252,-0.0251,-0.025,-0.0161,-0.016,-0.0158,-0.0097,-0.0097,-0.0097,-0.0096,0.0015,0.0018,0.0021,0,0,0,0,0,0,0,0,0,0,0,0,0,-0.0265,-0.0319,-0.0252,-0.021,-0.0205,-0.0161,-0.016,-0.0158,-0.0097,-0.0097,-0.0097,-0.0096,0.0013,0.0017,0.0021,0.0037,0,0,0.0034,0.0035,0,0,0,0,0,0,0,0,-0.0268,-0.0262,-0.0217,-0.0213,-0.0207,-0.0141,-0.0143,-0.0092,-0.0098,-0.0137,-0.0096,-0.0096,-0.0036,-0.0028,-0.001,0.0042,0.0047,0.0034,0.0036,0.0038,0.0039,0,0,0,0,0,0,0,-0.0272,-0.0266,-0.0214,-0.0216,-0.021,-0.0177,-0.0169,-0.0133,-0.0089,-0.0133,-0.0129,-0.0121,-0.0033,-0.0015,-0.0007,0.0049,0.0034,0.0037,0.004,0.0042,0.0136,0.0136,0,0,0,0,0,0,-0.0289,-0.027,-0.0217,-0.0212,-0.0239,-0.0177,-0.0168,-0.0162,-0.009,-0.0079,-0.0122,-0.0119,-0.0022,-0.0012,-0.0003,0.0022,0.0038,0.0042,0.0044,0.0136,0.0136,0.0136,0,0,0,0,0,0,-0.0291,-0.0286,-0.0221,-0.024,-0.0229,-0.0177,-0.017,-0.016,-0.0142,-0.0081,-0.0069,-0.0114,-0.0021,-0.0009,0.0029,0.0026,0.0044,0.0047,0.0135,0.0136,0.0136,0.007,0,0,0,0,0,0,-0.0294,-0.0287,-0.0291,-0.0241,-0.0229,-0.0205,-0.017,-0.0159,-0.0139,-0.0134,-0.0071,-0.006,-0.002,0.0023,0.0033,0.0032,0.0051,0.0135,0.0135,0.0136,0.0072,0.0068,0.0064,0,0,0,0,0,-0.0296,-0.0308,-0.0291,-0.0285,-0.0235,-0.0206,-0.0197,-0.0156,-0.0139,-0.0137,-0.009,-0.0062,0.0031,0.0026,0.0038,0.0038,0.0135,0.0135,0.0136,0.0074,0.0069,0.0064,0,0,0,0,0,0,-0.034,-0.0301,-0.0282,-0.0281,-0.025,-0.0196,-0.0192,-0.0163,-0.0124,-0.012,-0.006,-0.0046,-0.0013,0.0021,0.0014,0.0067,0.0088,0.009,0.0037,0.0032,0.0028,0.001,0.0054,0,0,0,0,0,-0.0352,-0.035,-0.0305,-0.0305,-0.0293,-0.0244,-0.0227,-0.02,-0.0159,-0.0141,-0.0095,-0.0046,-0.0003,0.002,0.0062,0.0088,0.0128,0.0097,0.0093,0.0089,0.0083,0.0143,0.0144,0.0136,0.0136,0.0136,0,0,-0.0369,-0.0348,-0.0346,-0.0314,-0.0287,-0.0279,-0.0233,-0.0216,-0.0204,-0.0136,-0.0109,-0.006,0.0001,0.0034,0.0051,0.0062,0.0113,0.009,0.0086,0.0082,0.0144,0.0144,0.0145,0.0136,0.0136,0.0136,0,0,-0.041,-0.0384,-0.0399,-0.0377,-0.0345,-0.0311,-0.031,-0.026,-0.0233,-0.0201,-0.0146,-0.0099,-0.004,0.0009,0.004,0.0039,0.0089,0.0051,0.0017,0.0075,0.0076,0.0077,0.0125,0.0131,0.0049,0.0049,0.0049,0,-0.0434,-0.0442,-0.0398,-0.0406,-0.0395,-0.0331,-0.0342,-0.0305,-0.0247,-0.0223,-0.0204,-0.0099,-0.005,0.0004,0.0003,0.003,0.0066,0.0028,0.0069,0.0071,0.0074,0.0123,0.013,0.0046,0.0046,0.0047,0.0047,0,-0.0482,-0.0488,-0.0495,-0.0481,-0.0462,-0.0461,-0.0406,-0.0379,-0.0337,-0.0293,-0.0232,-0.0157,-0.0093,-0.0069,-0.0034,0.001,0.0031,0.0055,0.0077,0.007,0.0123,0.0132,0.0041,0.0043,0.0044,0.0044,0,0,-0.0536,-0.0533,-0.0534,-0.0544,-0.0502,-0.0494,-0.0469,-0.0425,-0.0404,-0.0337,-0.0301,-0.0219,-0.0169,-0.013,-0.0069,-0.002,0.0029,0.0015,0.002,0.0054,0.015,0.0205,0.022,0.0059,0.006,0.0061,0.0177,0,-0.0588,-0.063,-0.0602,-0.063,-0.0645,-0.058,-0.0561,-0.0509,-0.0448,-0.0395,-0.0299,-0.0244,-0.0193,-0.016,-0.0102,0.0002,0.005,-0.0006,0.0158,0.0163,0.0206,0.0232,0.0262,0.0372,0.0187,0.0188,0.0189,0,-0.0642,-0.0664,-0.0709,-0.0708,-0.0706,-0.0706,-0.0657,-0.063,-0.0532,-0.0482,-0.0399,-0.0317,-0.0221,-0.0184,-0.0016,-0.0055,0.0033,0.011,0.0117,0.0197,0.0235,0.0351,0.0396,0.0551,0.0204,0.0203,0.0202,0,-0.0709,-0.0733,-0.0775,-0.0776,-0.0762,-0.0761,-0.0741,-0.0661,-0.0636,-0.0531,-0.0493,-0.0364,-0.029,-0.0164,0.0006,-0.0007,0.0191,0.0198,0.0329,0.0334,0.0407,0.0416,0.0616,0.0302,0.0302,0.0302,0.0301,0,-0.0775,-0.0806,-0.0814,-0.0839,-0.0877,-0.0833,-0.0837,-0.079,-0.0718,-0.0685,-0.0547,-0.0479,-0.0283,-0.0136,-0.0002,0.0206,0.0193,0.0331,0.0374,0.0385,0.0391,0.0567,0.0613,0.0306,0.0305,0.0304,0.0304,0,-0.0841,-0.0848,-0.0899,-0.0909,-0.0915,-0.0939,-0.092,-0.0913,-0.083,-0.0778,-0.0748,-0.056,-0.0355,-0.0148,0.008,0.0205,0.0487,0.0458,0.0456,0.0496,0.0749,0.0788,0.1018,0.1095,0.0615,0.0617,0.0619,0,-0.0879,-0.0916,-0.0962,-0.0998,-0.1008,-0.103,-0.1041,-0.0981,-0.0962,-0.0821,-0.0799,-0.0586,-0.0413,-0.0039,0.0223,0.0491,0.0593,0.0662,0.0643,0.0783,0.0858,0.0888,0.0937,0.0713,0.0715,0.0717,0.0719,0,-0.0947,-0.0963,-0.1005,-0.1086,-0.1122,-0.115,-0.1156,-0.1161,-0.107,-0.0996,-0.0851,-0.0699,-0.0309,0.004,0.0403,0.0558,0.0775,0.071,0.0867,0.0965,0.1,0.1087,0.0607,0.0737,0.0735,0.0734,0.0733,0.0732,-0.0985,-0.1036,-0.1095,-0.1165,-0.1214,-0.1253,-0.1272,-0.1241,-0.1198,-0.1062,-0.0907,-0.064,-0.0131,0.0403,0.059,0.0993,0.094,0.11,0.1139,0.1159,0.1233,0.0787,0.0957,0.0956,0.0956,0.0956,0.0955,0,-0.1028,-0.1087,-0.1168,-0.1247,-0.131,-0.1312,-0.1332,-0.1315,-0.1254,-0.1077,-0.0898,-0.0334,0.0169,0.0626,0.1202,0.1413,0.1442,0.1512,0.1564,0.1594,0.1224,0.1228,0.1451,0.1451,0.145,0.145,0.145,0.145,-0.1051,-0.1139,-0.1187,-0.1305,-0.1359,-0.1411,-0.142,-0.1363,-0.1244,-0.094,-0.0619,-0.0355,0.0319,0.1255,0.1787,0.1828,0.1976,0.1966,0.2048,0.1793,0.1757,0.1723,0.1742,0.2068,0.2069,0.2406,0.2409,0.2412]}],[{"header":{"parameterUnit":"m.s-1","parameterCategory":2,"la1":30.2991,"la2":30.254,"lo1":-89.0895,"lo2":-89.0444,"dy":0.0017,"dx":0.0017,"nx":28,"ny":28,"refTime":"2025-08-09T03:00:00:Z","depth":"2","parameterNumber":2,"parameterNumberName":"U-component_of_CURRENTS"},"data":[0,0,0,0,0,0,0,0,0,0,0,0,0,0,0,0,0,0,0,0,0,0,0,0,0,0,0,0,0,0,0,0,0,0,0,0,0,0,0,0,0,0,0,0,0,0,0,0,0,0,0,0,0,0,0,0,0,0,-0.2308,-0.2308,0,-0.2329,-0.2329,-0.2329,-0.2311,-0.2311,-0.231,-0.231,-0.228,-0.2279,-0.2279,0,0,0,0,0,0,0,0,0,0,0,0,0,-0.2242,-0.2243,-0.2308,-0.2308,-0.2309,-0.2329,-0.2329,-0.2329,-0.2311,-0.2311,-0.231,-0.231,-0.228,-0.2279,-0.2279,0,0,0,0,0,0,0,0,0,0,0,0,0,-0.2265,-0.2244,-0.2308,-0.2304,-0.2304,-0.2329,-0.2329,-0.2329,-0.2312,-0.2311,-0.231,-0.2309,-0.228,-0.2279,-0.2279,-0.2291,0,0,-0.2277,-0.2277,0,0,0,0,0,0,0,0,-0.2264,-0.2268,-0.2304,-0.2305,-0.2305,-0.2319,-0.2295,-0.2315,-0.2312,-0.2306,-0.231,-0.2309,-0.229,-0.2289,-0.2292,-0.2289,-0.2288,-0.2277,-0.2277,-0.2277,-0.2277,0,0,0,0,0,0,0,-0.2263,-0.2266,-0.2314,-0.2305,-0.2305,-0.2299,-0.2301,-0.2299,-0.2299,-0.2307,-0.2306,-0.2313,-0.229,-0.2292,-0.2291,-0.2288,-0.2277,-0.2277,-0.2277,-0.2276,-0.231,-0.2311,0,0,0,0,0,0,-0.2267,-0.2265,-0.2313,-0.2314,-0.2285,-0.2301,-0.2303,-0.2313,-0.23,-0.2299,-0.2313,-0.2312,-0.2293,-0.2291,-0.2289,-0.2324,-0.2277,-0.2276,-0.2276,-0.2309,-0.231,-0.2312,0,0,0,0,0,0,-0.2265,-0.2271,-0.2312,-0.2292,-0.2297,-0.2303,-0.2314,-0.2314,-0.2319,-0.2307,-0.2303,-0.2319,-0.2293,-0.229,-0.2297,-0.2322,-0.2276,-0.2276,-0.2307,-0.2309,-0.2311,-0.2379,0,0,0,0,0,0,-0.2263,-0.227,-0.2277,-0.2293,-0.2298,-0.2338,-0.2315,-0.2315,-0.2325,-0.2323,-0.231,-0.2306,-0.2292,-0.2298,-0.2296,-0.232,-0.2275,-0.2306,-0.2308,-0.231,-0.2376,-0.2383,-0.239,0,0,0,0,0,-0.2261,-0.2277,-0.2277,-0.2283,-0.2308,-0.2339,-0.2342,-0.2341,-0.2326,-0.2339,-0.2328,-0.2307,-0.2311,-0.2299,-0.2297,-0.2321,-0.2305,-0.2308,-0.231,-0.2372,-0.2382,-0.239,0,0,0,0,0,0,-0.225,-0.2277,-0.2278,-0.23,-0.2323,-0.2337,-0.2347,-0.2347,-0.2349,-0.2341,-0.2321,-0.2318,-0.2335,-0.2319,-0.2306,-0.2337,-0.2305,-0.2307,-0.2353,-0.2362,-0.2369,-0.2373,-0.2275,0,0,0,0,0,-0.2252,-0.2268,-0.2297,-0.2312,-0.2326,-0.2336,-0.2346,-0.2351,-0.2357,-0.2357,-0.235,-0.2342,-0.2346,-0.2345,-0.2344,-0.2361,-0.2346,-0.2375,-0.2382,-0.2388,-0.2391,-0.2394,-0.2401,-0.232,-0.232,-0.232,0,0,-0.2249,-0.2267,-0.2275,-0.2311,-0.2323,-0.2355,-0.234,-0.2364,-0.2388,-0.2353,-0.2375,-0.2367,-0.2356,-0.2377,-0.2383,-0.2365,-0.2406,-0.2392,-0.2397,-0.2397,-0.2397,-0.2405,-0.2412,-0.2322,-0.2322,-0.2322,0,0,-0.2259,-0.2272,-0.2293,-0.232,-0.2352,-0.2366,-0.2377,-0.2402,-0.241,-0.2434,-0.2417,-0.2426,-0.2426,-0.243,-0.2429,-0.2475,-0.2444,-0.2473,-0.2513,-0.2516,-0.2522,-0.2528,-0.2526,-0.253,-0.2476,-0.2476,-0.2476,0,-0.2255,-0.2287,-0.2304,-0.2338,-0.2362,-0.2375,-0.2409,-0.2428,-0.2451,-0.2463,-0.2448,-0.2465,-0.2455,-0.2484,-0.25,-0.2492,-0.2483,-0.2481,-0.2525,-0.253,-0.2534,-0.2531,-0.2535,-0.248,-0.2479,-0.2479,-0.2479,0,-0.2284,-0.2315,-0.2331,-0.2378,-0.2408,-0.2439,-0.2476,-0.2502,-0.2508,-0.2523,-0.2553,-0.2545,-0.2551,-0.2557,-0.254,-0.2574,-0.2554,-0.2534,-0.2503,-0.2547,-0.254,-0.2543,-0.2485,-0.2484,-0.2483,-0.2482,0,0,-0.2256,-0.2336,-0.2341,-0.237,-0.2432,-0.2457,-0.251,-0.2558,-0.2584,-0.2606,-0.2636,-0.2651,-0.264,-0.2638,-0.2625,-0.2631,-0.2657,-0.2598,-0.2596,-0.2596,-0.266,-0.2587,-0.2583,-0.2642,-0.2643,-0.2643,-0.2645,0,-0.227,-0.2335,-0.2376,-0.2436,-0.2471,-0.2515,-0.2563,-0.2608,-0.2634,-0.2668,-0.2675,-0.2694,-0.2674,-0.2674,-0.2682,-0.2659,-0.2668,-0.2658,-0.2617,-0.2616,-0.2546,-0.2585,-0.2387,-0.2366,-0.2647,-0.2648,-0.2648,0,-0.2278,-0.2323,-0.2385,-0.2466,-0.2486,-0.2526,-0.2595,-0.2639,-0.2698,-0.2719,-0.2746,-0.2746,-0.2767,-0.2735,-0.2733,-0.2726,-0.2701,-0.2684,-0.2683,-0.2591,-0.2549,-0.2366,-0.2361,-0.2653,-0.2653,-0.2653,-0.2652,0,-0.2233,-0.2324,-0.2369,-0.2399,-0.2496,-0.253,-0.2575,-0.2645,-0.2681,-0.2742,-0.2765,-0.2794,-0.2795,-0.2784,-0.2749,-0.2741,-0.2735,-0.2717,-0.2635,-0.263,-0.244,-0.2416,-0.272,-0.272,-0.272,-0.272,-0.272,0,-0.2225,-0.226,-0.2351,-0.2376,-0.2425,-0.2503,-0.2556,-0.2609,-0.2684,-0.2716,-0.2774,-0.2792,-0.2805,-0.2801,-0.277,-0.2709,-0.2751,-0.2648,-0.2627,-0.2459,-0.2438,-0.2666,-0.266,-0.272,-0.272,-0.272,-0.272,0,-0.2162,-0.223,-0.2278,-0.2376,-0.2403,-0.2429,-0.2527,-0.2561,-0.2651,-0.2693,-0.2711,-0.2786,-0.2781,-0.2787,-0.2765,-0.2719,-0.2679,-0.2647,-0.2449,-0.2405,-0.2569,-0.2566,-0.2561,-0.2558,-0.2556,-0.2554,-0.2553,0,-0.2135,-0.2153,-0.2242,-0.226,-0.2301,-0.236,-0.2396,-0.2513,-0.2549,-0.267,-0.2672,-0.272,-0.2711,-0.2678,-0.2618,-0.2564,-0.2623,-0.2345,-0.2297,-0.2574,-0.2554,-0.2555,-0.2555,-0.2076,-0.2071,-0.2066,-0.2063,0,-0.2061,-0.2091,-0.2125,-0.2161,-0.2199,-0.2246,-0.2309,-0.2341,-0.2468,-0.2513,-0.2556,-0.257,-0.257,-0.243,-0.2384,-0.2317,-0.234,-0.2256,-0.2588,-0.2151,-0.2117,-0.2098,-0.2114,-0.2025,-0.2028,-0.2031,-0.2033,-0.2035,-0.1981,-0.1977,-0.2014,-0.2035,-0.2076,-0.21,-0.2093,-0.2173,-0.221,-0.2246,-0.2355,-0.2312,-0.2311,-0.2142,-0.2046,-0.1976,-0.213,-0.2016,-0.2029,-0.2047,-0.1994,-0.1959,-0.1827,-0.1829,-0.1832,-0.1834,-0.1835,0,-0.1864,-0.1871,-0.1884,-0.1902,-0.1885,-0.1959,-0.1999,-0.1962,-0.1946,-0.2018,-0.203,-0.1843,-0.1776,-0.1785,-0.1633,-0.1607,-0.1582,-0.1522,-0.1487,-0.1526,-0.156,-0.1483,-0.118,-0.1178,-0.1176,-0.1174,0,0,-0.1804,-0.1764,-0.1769,-0.1694,-0.1706,-0.1638,-0.1629,-0.1597,-0.1607,-0.1547,-0.1535,-0.1682,-0.1735,-0.1459,-0.1395,-0.1268,-0.1378,-0.1199,-0.1724,-0.1721,-0.1753,-0.1843,-0.1768,0,0,0,0,0]},{"header":{"parameterUnit":"m.s-1","parameterCategory":2,"la1":30.2991,"la2":30.254,"lo1":-89.0895,"lo2":-89.0444,"dy":0.0017,"dx":0.0017,"nx":28,"ny":28,"refTime":"2025-08-09T03:00:00:Z","depth":"2","parameterNumber":3,"parameterNumberName":"V-component_of_CURRENTS"},"data":[0,0,0,0,0,0,0,0,0,0,0,0,0,0,0,0,0,0,0,0,0,0,0,0,0,0,0,0,0,0,0,0,0,0,0,0,0,0,0,0,0,0,0,0,0,0,0,0,0,0,0,0,0,0,0,0,0,0,-0.0187,-0.0186,0,-0.0102,-0.0101,-0.01,-0.0045,-0.0044,-0.0044,-0.0044,0.006,0.0062,0.0065,0,0,0,0,0,0,0,0,0,0,0,0,0,-0.0251,-0.025,-0.0187,-0.0186,-0.0185,-0.0102,-0.0101,-0.01,-0.0045,-0.0044,-0.0044,-0.0044,0.0059,0.0062,0.0065,0,0,0,0,0,0,0,0,0,0,0,0,0,-0.0199,-0.025,-0.0187,-0.0148,-0.0144,-0.0103,-0.0101,-0.01,-0.0045,-0.0044,-0.0044,-0.0044,0.0058,0.0062,0.0066,0.0082,0,0,0.0077,0.0079,0,0,0,0,0,0,0,0,-0.0202,-0.0197,-0.0155,-0.0151,-0.0146,-0.0085,-0.0086,-0.0038,-0.0045,-0.0081,-0.0044,-0.0044,0.0012,0.002,0.0036,0.0087,0.0091,0.0078,0.008,0.0082,0.0083,0,0,0,0,0,0,0,-0.0206,-0.02,-0.0152,-0.0154,-0.0149,-0.0118,-0.0111,-0.0076,-0.0036,-0.0078,-0.0074,-0.0067,0.0015,0.0033,0.0039,0.0093,0.0077,0.0081,0.0083,0.0085,0.0174,0.0174,0,0,0,0,0,0,-0.0222,-0.0203,-0.0155,-0.015,-0.0175,-0.0118,-0.0109,-0.0104,-0.0037,-0.0027,-0.0067,-0.0065,0.0026,0.0035,0.0043,0.0069,0.0082,0.0085,0.0087,0.0174,0.0174,0.0174,0,0,0,0,0,0,-0.0224,-0.0218,-0.0158,-0.0175,-0.0166,-0.0118,-0.0111,-0.0102,-0.0086,-0.0029,-0.0018,-0.0061,0.0027,0.0038,0.0074,0.0073,0.0087,0.009,0.0174,0.0174,0.0174,0.0118,0,0,0,0,0,0,-0.0226,-0.022,-0.0223,-0.0177,-0.0166,-0.0142,-0.0112,-0.0101,-0.0083,-0.0078,-0.002,-0.001,0.0028,0.0068,0.0077,0.0079,0.0093,0.0174,0.0174,0.0174,0.012,0.0117,0.0114,0,0,0,0,0,-0.0228,-0.0238,-0.0224,-0.0218,-0.0172,-0.0143,-0.0134,-0.0097,-0.0083,-0.008,-0.0037,-0.0012,0.0076,0.0071,0.0082,0.0084,0.0174,0.0174,0.0174,0.0122,0.0117,0.0114,0,0,0,0,0,0,-0.0268,-0.0232,-0.0216,-0.0213,-0.0184,-0.0134,-0.013,-0.0104,-0.0068,-0.0065,-0.001,0.0004,0.0035,0.0067,0.006,0.0111,0.0129,0.0131,0.0085,0.0081,0.0078,0.0061,0.0096,0,0,0,0,0,-0.0279,-0.0277,-0.0235,-0.0235,-0.0223,-0.0178,-0.0163,-0.0138,-0.0099,-0.0083,-0.0041,0.0005,0.0045,0.0067,0.0106,0.0133,0.0169,0.0142,0.0139,0.0136,0.013,0.0186,0.0187,0.0175,0.0175,0.0175,0,0,-0.0295,-0.0275,-0.0273,-0.0243,-0.0218,-0.0209,-0.0168,-0.0151,-0.0139,-0.0078,-0.0051,-0.0007,0.005,0.0082,0.0099,0.0108,0.0158,0.0136,0.0133,0.0129,0.0186,0.0188,0.0189,0.0175,0.0175,0.0175,0,0,-0.033,-0.0308,-0.0319,-0.0299,-0.0268,-0.0237,-0.0236,-0.019,-0.0164,-0.0134,-0.0084,-0.0041,0.0015,0.0062,0.0091,0.0093,0.0137,0.0103,0.0074,0.0129,0.013,0.0132,0.0176,0.0182,0.0102,0.0102,0.0102,0,-0.0352,-0.0357,-0.0318,-0.0323,-0.0312,-0.0255,-0.0264,-0.0228,-0.0174,-0.0153,-0.0136,-0.0038,0.0007,0.006,0.006,0.0085,0.0118,0.0083,0.0124,0.0126,0.0129,0.0174,0.0181,0.0099,0.01,0.01,0.01,0,-0.0392,-0.0396,-0.0402,-0.0387,-0.0369,-0.0367,-0.0316,-0.0291,-0.0254,-0.0212,-0.0156,-0.0086,-0.0027,-0.0004,0.0028,0.0071,0.0089,0.0111,0.013,0.0127,0.0174,0.0183,0.0096,0.0097,0.0097,0.0098,0,0,-0.044,-0.0434,-0.0435,-0.0445,-0.0405,-0.0397,-0.0371,-0.033,-0.0312,-0.0248,-0.0216,-0.0137,-0.0093,-0.0057,-0.0001,0.0047,0.0095,0.0078,0.0082,0.0114,0.0207,0.0248,0.0262,0.0123,0.0124,0.0125,0.0231,0,-0.0485,-0.0521,-0.0494,-0.0518,-0.0531,-0.0472,-0.0453,-0.0405,-0.0349,-0.0301,-0.0211,-0.0161,-0.0113,-0.0084,-0.0028,0.0068,0.0115,0.0063,0.0212,0.0216,0.0248,0.0273,0.0234,0.0328,0.024,0.0241,0.0243,0,-0.0532,-0.0551,-0.059,-0.059,-0.0588,-0.0588,-0.0545,-0.0519,-0.0428,-0.0383,-0.0307,-0.0231,-0.014,-0.0105,0.0052,0.0016,0.0099,0.0171,0.0178,0.024,0.0274,0.032,0.0347,0.0258,0.0256,0.0255,0.0254,0,-0.0595,-0.0615,-0.0654,-0.0654,-0.064,-0.0641,-0.0623,-0.055,-0.0528,-0.0431,-0.0399,-0.0276,-0.021,-0.0089,0.0069,0.0059,0.0242,0.0252,0.0367,0.037,0.038,0.0382,0.0352,0.0352,0.0352,0.0352,0.0351,0,-0.0655,-0.0684,-0.0692,-0.0715,-0.0752,-0.0711,-0.0719,-0.0676,-0.0609,-0.0581,-0.0451,-0.0393,-0.0204,-0.0069,0.006,0.0249,0.0241,0.0368,0.0406,0.0359,0.0359,0.033,0.0326,0.0356,0.0355,0.0354,0.0353,0,-0.0719,-0.0723,-0.0771,-0.0782,-0.0789,-0.0814,-0.0801,-0.0796,-0.072,-0.0675,-0.0648,-0.0476,-0.0288,-0.0092,0.0124,0.0241,0.0413,0.0476,0.0407,0.0436,0.0501,0.0493,0.0612,0.0614,0.0616,0.0618,0.0619,0,-0.0754,-0.0788,-0.0835,-0.087,-0.0881,-0.0906,-0.0919,-0.0864,-0.085,-0.0721,-0.0704,-0.0511,-0.0355,-0.001,0.0231,0.0482,0.0475,0.0581,0.0561,0.0506,0.0531,0.0519,0.0509,0.0548,0.0549,0.055,0.055,0,-0.082,-0.0836,-0.0876,-0.0956,-0.0994,-0.1025,-0.1034,-0.1042,-0.0957,-0.0893,-0.0766,-0.0629,-0.0278,0.0012,0.0346,0.0482,0.0541,0.0603,0.0581,0.0488,0.0455,0.0477,0.0467,0.0556,0.0555,0.0555,0.0554,0.0554,-0.086,-0.0908,-0.0965,-0.1036,-0.1085,-0.1126,-0.1147,-0.1123,-0.1088,-0.0966,-0.0829,-0.0594,-0.0301,0.0179,0.0412,0.0627,0.0626,0.0669,0.0663,0.0658,0.0631,0.0604,0.0726,0.0727,0.0727,0.0727,0.0728,0,-0.0904,-0.096,-0.1038,-0.1116,-0.1179,-0.1185,-0.1208,-0.1191,-0.1142,-0.0989,-0.0831,-0.0503,-0.0159,0.0142,0.0491,0.0702,0.0672,0.0722,0.0639,0.0633,0.0628,0.0596,0.0685,0.0685,0.0686,0.0686,0,0,-0.0928,-0.1012,-0.1056,-0.1172,-0.1227,-0.1282,-0.1293,-0.1237,-0.1132,-0.0971,-0.079,-0.0532,-0.0154,0.0078,0.0346,0.0525,0.0517,0.0535,0.0549,0.0413,0.0405,0.0582,0.0525,0,0,0,0,0]}],[{"header":{"parameterUnit":"m.s-1","parameterCategory":2,"la1":30.2991,"la2":30.254,"lo1":-89.0895,"lo2":-89.0444,"dy":0.0017,"dx":0.0017,"nx":28,"ny":28,"refTime":"2025-08-09T03:00:00:Z","depth":"4","parameterNumber":2,"parameterNumberName":"U-component_of_CURRENTS"},"data":[0,0,0,0,0,0,0,0,0,0,0,0,0,0,0,0,0,0,0,0,0,0,0,0,0,0,0,0,0,0,0,0,0,0,0,0,0,0,0,0,0,0,0,0,0,0,0,0,0,0,0,0,0,0,0,0,0,0,-0.1607,-0.1608,0,-0.1665,-0.1665,-0.1666,-0.1702,-0.1703,-0.1703,-0.1703,-0.1752,-0.1753,-0.1754,0,0,0,0,0,0,0,0,0,0,0,0,0,-0.1522,-0.1523,-0.1607,-0.1608,-0.1609,-0.1665,-0.1666,-0.1666,-0.1702,-0.1703,-0.1703,-0.1703,-0.1752,-0.1753,-0.1754,0,0,0,0,0,0,0,0,0,0,0,0,0,-0.1566,-0.1524,-0.1607,-0.1635,-0.1638,-0.1665,-0.1666,-0.1666,-0.1702,-0.1703,-0.1703,-0.1704,-0.1751,-0.1753,-0.1754,-0.1752,0,0,-0.1759,-0.1759,0,0,0,0,0,0,0,0,-0.1563,-0.1568,-0.163,-0.1633,-0.1637,-0.1679,-0.1654,-0.1695,-0.1702,-0.1676,-0.1703,-0.1704,-0.1728,-0.1731,-0.1738,-0.1754,-0.1756,-0.1759,-0.176,-0.176,-0.1761,0,0,0,0,0,0,0,-0.156,-0.1566,-0.1628,-0.1631,-0.1635,-0.1643,-0.1649,-0.1662,-0.1696,-0.1678,-0.1681,-0.1691,-0.1729,-0.1737,-0.1739,-0.1757,-0.1759,-0.176,-0.1761,-0.1761,-0.1848,-0.185,0,0,0,0,0,0,-0.1557,-0.1563,-0.1626,-0.163,-0.1603,-0.1644,-0.1651,-0.1663,-0.1696,-0.1703,-0.169,-0.1692,-0.1734,-0.1738,-0.1741,-0.1814,-0.176,-0.1762,-0.1762,-0.1847,-0.1849,-0.185,0,0,0,0,0,0,-0.1555,-0.1562,-0.1624,-0.1599,-0.1608,-0.1645,-0.1658,-0.1664,-0.17,-0.1706,-0.1712,-0.1723,-0.1734,-0.1739,-0.178,-0.1813,-0.1762,-0.1764,-0.1845,-0.1848,-0.185,-0.1912,0,0,0,0,0,0,-0.1552,-0.1561,-0.1581,-0.1599,-0.1609,-0.1663,-0.1658,-0.1665,-0.1704,-0.1708,-0.1735,-0.1739,-0.1735,-0.1778,-0.1782,-0.1814,-0.1765,-0.1843,-0.1846,-0.1849,-0.1908,-0.1916,-0.1923,0,0,0,0,0,-0.1549,-0.1571,-0.1581,-0.159,-0.1632,-0.1664,-0.1671,-0.1696,-0.1705,-0.1729,-0.1748,-0.174,-0.1798,-0.1781,-0.1784,-0.1818,-0.1842,-0.1845,-0.1849,-0.1905,-0.1915,-0.1923,0,0,0,0,0,0,-0.1547,-0.1578,-0.1589,-0.1621,-0.1652,-0.1671,-0.1699,-0.1713,-0.1747,-0.1758,-0.1759,-0.1764,-0.1811,-0.1806,-0.1788,-0.1851,-0.1818,-0.1823,-0.186,-0.1869,-0.1876,-0.1872,-0.1766,0,0,0,0,0,-0.1555,-0.1581,-0.1609,-0.1638,-0.1656,-0.1682,-0.1703,-0.1722,-0.1748,-0.1765,-0.1785,-0.1804,-0.1823,-0.184,-0.1855,-0.1891,-0.1875,-0.1915,-0.1922,-0.1929,-0.1928,-0.193,-0.1938,-0.1861,-0.1861,-0.1861,0,0,-0.1562,-0.1583,-0.1599,-0.164,-0.1665,-0.1698,-0.1697,-0.174,-0.1773,-0.1763,-0.1823,-0.1833,-0.1838,-0.188,-0.19,-0.1884,-0.1945,-0.1933,-0.1938,-0.1934,-0.1935,-0.1942,-0.1948,-0.1863,-0.1863,-0.1862,0,0,-0.1581,-0.161,-0.1637,-0.1667,-0.1712,-0.1729,-0.1748,-0.1788,-0.1816,-0.1866,-0.1867,-0.1899,-0.1934,-0.1943,-0.1949,-0.2006,-0.1984,-0.2017,-0.2053,-0.2056,-0.2062,-0.2067,-0.2067,-0.2071,-0.2021,-0.2021,-0.2021,0,-0.1592,-0.1626,-0.1651,-0.1685,-0.1715,-0.1746,-0.1783,-0.1815,-0.1866,-0.1891,-0.1896,-0.1952,-0.1961,-0.1998,-0.202,-0.2023,-0.2018,-0.2019,-0.2065,-0.2069,-0.2073,-0.2071,-0.2075,-0.2025,-0.2024,-0.2024,-0.2024,0,-0.162,-0.1663,-0.1684,-0.1735,-0.177,-0.181,-0.1853,-0.1898,-0.1933,-0.1958,-0.2016,-0.203,-0.2058,-0.2072,-0.2065,-0.2105,-0.209,-0.2073,-0.204,-0.2085,-0.208,-0.2083,-0.203,-0.2028,-0.2027,-0.2027,0,0,-0.1604,-0.1687,-0.1698,-0.1732,-0.1802,-0.1829,-0.1895,-0.1952,-0.1993,-0.2043,-0.2089,-0.2128,-0.2135,-0.2141,-0.2142,-0.2151,-0.2181,-0.213,-0.2128,-0.2125,-0.2188,-0.2046,-0.2036,-0.2172,-0.2172,-0.2173,-0.2177,0,-0.1621,-0.1686,-0.1728,-0.1798,-0.1833,-0.189,-0.1945,-0.2003,-0.205,-0.2103,-0.2127,-0.217,-0.2161,-0.2181,-0.219,-0.2181,-0.219,-0.2181,-0.2149,-0.2148,-0.2012,-0.2035,-0.2175,-0.2179,-0.2179,-0.218,-0.218,0,-0.1625,-0.1671,-0.1741,-0.1827,-0.185,-0.1902,-0.1988,-0.2041,-0.2116,-0.2154,-0.2198,-0.2217,-0.2251,-0.223,-0.224,-0.2236,-0.222,-0.2208,-0.2207,-0.205,-0.201,-0.2122,-0.2185,-0.2185,-0.2184,-0.2184,-0.2184,0,-0.1578,-0.1675,-0.1731,-0.1763,-0.1866,-0.1916,-0.1973,-0.2058,-0.2101,-0.2186,-0.2219,-0.2262,-0.2282,-0.2277,-0.2256,-0.2255,-0.2248,-0.224,-0.2099,-0.209,-0.219,-0.2184,-0.2241,-0.2241,-0.2241,-0.2241,-0.2241,0,-0.1558,-0.1606,-0.172,-0.1749,-0.1815,-0.19,-0.1975,-0.2037,-0.2124,-0.2159,-0.2237,-0.2252,-0.2293,-0.2292,-0.2271,-0.2182,-0.2259,-0.2101,-0.2076,-0.2218,-0.2216,-0.2192,-0.2187,-0.2242,-0.2241,-0.2241,-0.2241,0,-0.1488,-0.1569,-0.1635,-0.1755,-0.1794,-0.1839,-0.1959,-0.1999,-0.2103,-0.2149,-0.2177,-0.2252,-0.2245,-0.2263,-0.225,-0.2178,-0.2124,-0.2076,-0.223,-0.2215,-0.1966,-0.1964,-0.192,-0.1915,-0.1911,-0.1907,-0.1904,0,-0.1454,-0.1483,-0.1612,-0.1646,-0.1705,-0.1791,-0.1838,-0.1964,-0.1996,-0.2118,-0.2112,-0.2165,-0.2191,-0.2057,-0.2098,-0.2047,-0.2021,-0.1989,-0.1973,-0.195,-0.1932,-0.1936,-0.194,-0.1897,-0.1896,-0.1895,-0.1894,0,-0.1374,-0.1436,-0.1486,-0.1553,-0.1617,-0.1675,-0.1753,-0.1765,-0.1891,-0.2009,-0.1986,-0.198,-0.1969,-0.195,-0.1922,-0.1887,-0.2006,-0.1944,-0.1952,-0.1938,-0.1922,-0.1909,-0.1917,-0.1879,-0.1881,-0.1883,-0.1883,0,-0.1309,-0.132,-0.1389,-0.1432,-0.1505,-0.1521,-0.1591,-0.1622,-0.1672,-0.1811,-0.1794,-0.1856,-0.1937,-0.1865,-0.1838,-0.1792,-0.1768,-0.1709,-0.173,-0.1747,-0.1687,-0.1642,-0.1484,0,0,0,0,0,-0.1229,-0.1223,-0.1256,-0.1297,-0.1362,-0.14,-0.1505,-0.1579,-0.1707,-0.1638,-0.1712,-0.1694,-0.1664,-0.1698,-0.1612,-0.1762,-0.1776,-0.1657,-0.1721,-0.1796,-0.1813,-0.1757,0,0,0,0,0,0,-0.1176,-0.1201,-0.1207,-0.1165,-0.1164,-0.1219,-0.128,-0.1377,-0.1349,-0.1486,-0.147,-0.158,-0.1568,-0.1673,-0.1569,-0.158,-0.1584,-0.1707,-0.1702,-0.1786,-0.1802,-0.1816,-0.1764,0,0,0,0,0]},{"header":{"parameterUnit":"m.s-1","parameterCategory":2,"la1":30.2991,"la2":30.254,"lo1":-89.0895,"lo2":-89.0444,"dy":0.0017,"dx":0.0017,"nx":28,"ny":28,"refTime":"2025-08-09T03:00:00:Z","depth":"4","parameterNumber":3,"parameterNumberName":"V-component_of_CURRENTS"},"data":[0,0,0,0,0,0,0,0,0,0,0,0,0,0,0,0,0,0,0,0,0,0,0,0,0,0,0,0,0,0,0,0,0,0,0,0,0,0,0,0,0,0,0,0,0,0,0,0,0,0,0,0,0,0,0,0,0,0,-0.0124,-0.0123,0,-0.0065,-0.0065,-0.0064,-0.0025,-0.0025,-0.0025,-0.0025,0.0057,0.0059,0.0061,0,0,0,0,0,0,0,0,0,0,0,0,0,-0.0164,-0.0163,-0.0124,-0.0123,-0.0123,-0.0065,-0.0065,-0.0064,-0.0025,-0.0025,-0.0025,-0.0024,0.0056,0.0059,0.0061,0,0,0,0,0,0,0,0,0,0,0,0,0,-0.0129,-0.0163,-0.0124,-0.0097,-0.0094,-0.0066,-0.0065,-0.0063,-0.0025,-0.0025,-0.0025,-0.0024,0.0056,0.0059,0.0062,0.0075,0,0,0.0071,0.0072,0,0,0,0,0,0,0,0,-0.0131,-0.0128,-0.0102,-0.0099,-0.0096,-0.0053,-0.0049,-0.0016,-0.0025,-0.005,-0.0025,-0.0024,0.0021,0.0027,0.0039,0.0079,0.0083,0.0071,0.0073,0.0074,0.0075,0,0,0,0,0,0,0,-0.0134,-0.013,-0.01,-0.0101,-0.0098,-0.0075,-0.007,-0.0042,-0.0015,-0.0048,-0.0045,-0.0041,0.0023,0.0036,0.0041,0.0084,0.0071,0.0074,0.0076,0.0077,0.0151,0.0151,0,0,0,0,0,0,-0.0145,-0.0132,-0.0101,-0.0098,-0.0114,-0.0075,-0.0069,-0.0066,-0.0016,-0.0008,-0.0041,-0.0039,0.0031,0.0038,0.0044,0.0068,0.0074,0.0077,0.0079,0.0151,0.0151,0.0151,0,0,0,0,0,0,-0.0146,-0.0143,-0.0104,-0.0114,-0.0108,-0.0075,-0.0071,-0.0065,-0.0054,-0.0011,-0.0003,-0.0037,0.0031,0.004,0.0069,0.0071,0.0078,0.0081,0.015,0.0151,0.0151,0.0113,0,0,0,0,0,0,-0.0148,-0.0144,-0.0148,-0.0115,-0.0108,-0.0092,-0.0072,-0.0064,-0.0052,-0.0049,-0.0005,0.0003,0.0032,0.0064,0.0072,0.0076,0.0083,0.015,0.0151,0.0151,0.0114,0.0112,0.011,0,0,0,0,0,-0.015,-0.0156,-0.0149,-0.0145,-0.0114,-0.0093,-0.0087,-0.0061,-0.0052,-0.005,-0.0018,0.0002,0.0071,0.0066,0.0076,0.0081,0.015,0.015,0.0151,0.0115,0.0113,0.011,0,0,0,0,0,0,-0.0175,-0.0152,-0.0143,-0.0143,-0.0123,-0.0087,-0.0084,-0.0066,-0.0039,-0.0038,0.0004,0.0014,0.0041,0.0065,0.0059,0.0103,0.0114,0.0116,0.0084,0.0082,0.008,0.0065,0.0086,0,0,0,0,0,-0.0185,-0.0184,-0.0156,-0.0157,-0.0149,-0.0119,-0.0108,-0.0091,-0.0062,-0.005,-0.0018,0.0017,0.005,0.0068,0.0098,0.0121,0.0148,0.0131,0.0129,0.0127,0.0121,0.0168,0.017,0.0152,0.0152,0.0152,0,0,-0.0196,-0.0183,-0.0183,-0.0163,-0.0146,-0.0139,-0.0111,-0.01,-0.009,-0.0046,-0.0025,0.001,0.0054,0.0081,0.0095,0.0102,0.0146,0.0127,0.0125,0.0121,0.0169,0.017,0.0172,0.0152,0.0152,0.0152,0,0,-0.0219,-0.0207,-0.0215,-0.0201,-0.0181,-0.0159,-0.0159,-0.0126,-0.0108,-0.0084,-0.0047,-0.0012,0.0032,0.007,0.0093,0.0098,0.0132,0.0106,0.0088,0.0133,0.0135,0.0137,0.017,0.0175,0.0108,0.0107,0.0107,0,-0.0234,-0.0239,-0.0213,-0.0216,-0.0211,-0.0172,-0.0178,-0.0152,-0.0112,-0.0098,-0.0085,-0.0009,0.0028,0.0072,0.0074,0.0094,0.0119,0.0092,0.013,0.0132,0.0135,0.0169,0.0175,0.0106,0.0106,0.0106,0.0106,0,-0.0258,-0.0265,-0.0269,-0.026,-0.0248,-0.0248,-0.0211,-0.0194,-0.0169,-0.0139,-0.0095,-0.0039,0.0005,0.0027,0.0052,0.009,0.0102,0.012,0.0133,0.0134,0.017,0.0177,0.0103,0.0104,0.0104,0.0105,0,0,-0.0288,-0.0288,-0.029,-0.0302,-0.0274,-0.0271,-0.0251,-0.0223,-0.0213,-0.0162,-0.014,-0.0074,-0.0042,-0.0013,0.0033,0.0075,0.0117,0.0099,0.0102,0.0126,0.0208,0.0197,0.0204,0.0141,0.0142,0.0143,0.0224,0,-0.0317,-0.0345,-0.0328,-0.0351,-0.0362,-0.0324,-0.0312,-0.0279,-0.024,-0.0206,-0.0134,-0.0097,-0.0055,-0.0035,0.0016,0.0094,0.0134,0.0092,0.0208,0.0211,0.0198,0.0212,0.0146,0.0229,0.0231,0.0232,0.0233,0,-0.0345,-0.0362,-0.0396,-0.0407,-0.0408,-0.0413,-0.0391,-0.0373,-0.0307,-0.0275,-0.0216,-0.0158,-0.008,-0.0051,0.0082,0.0053,0.012,0.018,0.0185,0.0192,0.0214,0.0231,0.0246,0.0245,0.0244,0.0244,0.0243,0,-0.0387,-0.0409,-0.0444,-0.0447,-0.0447,-0.0456,-0.045,-0.0401,-0.0389,-0.0318,-0.0298,-0.0195,-0.0147,-0.004,0.0088,0.0085,0.023,0.0245,0.0299,0.0299,0.03,0.0298,0.0328,0.0328,0.0328,0.0328,0.0327,0,-0.0422,-0.0452,-0.0475,-0.0495,-0.0538,-0.0513,-0.0532,-0.0504,-0.0462,-0.0445,-0.0343,-0.0303,-0.0143,-0.0037,0.0077,0.0211,0.0226,0.0296,0.0321,0.0282,0.0277,0.0305,0.0302,0.0331,0.033,0.0329,0.0329,0,-0.0459,-0.0472,-0.0521,-0.0547,-0.0562,-0.0592,-0.0604,-0.0608,-0.0558,-0.053,-0.051,-0.0383,-0.0237,-0.0075,0.0105,0.0187,0.0322,0.0363,0.0303,0.0324,0.0362,0.0355,0.0429,0.0429,0.043,0.043,0.043,0,-0.0478,-0.0508,-0.0572,-0.0611,-0.0631,-0.0669,-0.0691,-0.0663,-0.0659,-0.0574,-0.0562,-0.0424,-0.0319,-0.007,0.0094,0.0314,0.0339,0.0399,0.0385,0.0355,0.0373,0.0366,0.036,0.0431,0.0431,0.0431,0.0431,0,-0.0514,-0.0543,-0.0583,-0.0669,-0.0718,-0.0759,-0.0785,-0.0791,-0.0738,-0.0699,-0.0591,-0.0443,-0.028,-0.0078,0.0093,0.0248,0.0358,0.0402,0.0402,0.039,0.0358,0.0374,0.0367,0.0432,0.0432,0.0432,0.0432,0,-0.0539,-0.0581,-0.0643,-0.0713,-0.0781,-0.0824,-0.0833,-0.0811,-0.0794,-0.0691,-0.0659,-0.046,-0.0344,-0.0113,0.0047,0.0201,0.0234,0.0269,0.0277,0.0278,0.021,0.0146,0.0178,0,0,0,0,0,-0.0555,-0.0605,-0.068,-0.0753,-0.0821,-0.0855,-0.0881,-0.0871,-0.0826,-0.0757,-0.0702,-0.0539,-0.028,-0.0168,-0.0016,0.0037,0.0246,0.0218,0.0287,0.0438,0.0436,0.0382,0,0,0,0,0,0,-0.0567,-0.0639,-0.068,-0.0769,-0.0822,-0.0885,-0.0902,-0.0873,-0.0823,-0.0756,-0.0618,-0.0521,-0.0272,-0.0365,-0.0017,0.003,0.0089,0.0347,0.035,0.0438,0.0437,0.0436,0.038,0,0,0,0,0]}]]